◎2003 EL61    (From YC 2482)



深宇宙の小惑星  2003 EL61

  スペインのアセイトゥノ(F. J. Aceituno, Granada)によって 36-cm f/6.0 

シュミット・カセグレインを使用して,2003年3月にかみのけ座を撮影したCCDフ

レーム上の次の位置に発見されていた17等級の動きの遅い小惑星状天体は,その

発見後,4月13日まで観測された.この天体は,2004年になってブラウンら(M. 

E. Brown et al.)によっても,5月6日に見つけられた.彼らの2005年1月から

6月までのケック天文台での追跡によると,この天体には,軌道長半径が約4万

9500-Kmを公転する周期が 49.1日の衛星の存在が推測され,その連星系の質量は,

冥王星系の質量の29%になるという.この天体は,今年7月になって,スペイン

のサンチェス(S. Sanchez  et al.)らによって捕らえられ,その存在が確認さ

れ,公表された(IAUC 8577).



   2003 UT             α     (2000)     δ             Mag.

   Mar. 7.02824    13h 20m 02s.68   +20゚ 39' 16".9      17.6



  計算された連結軌道から,1955年(観測光度;16.4等),1991年(16.9等),

1994年(16.9等),1995年(17.8等),1996年(16.6等),1998年(17.4等),

1999年(17.7等),2002年,2003年,2004年,2005年と11回の衝での観測が確認

された.

  OAA小惑星課では,1955年から2005年まで11回の衝で行なわれた69個の観測から

次の軌道を計算した(http://www.spaceguard.or.jp/ja/mpnews/0003.html & 

0008.html).

           。

   Mo= 198.0634                Epoch = 2005 Aug. 18.0 TT

   ω = 239.5176                   e =   0.188740          H =  0.3

   Ω = 121.8951    (2000.0)       a =  43.34474 AU        G =  0.15

   i =  28.1947                   n゚=   0.003453818

   q =  35.16385 AU               P = 285.4 年



  なお,この小惑星は,現在,ほぼ,その遠日点近くを運行している.もっとも

近い近日点通過は2133年頃で,小惑星は,その頃,15等級まで明るくなるだろう.

仮に天文年鑑2005(p.237〜)と同じように表面の反射率(アルベド)を0.15とし

て,その直径を計算すると3030-Km,アルベドを冥王星と同じ0.30とすると2150-

Kmとなる.これは,冥王星のそれ(直径2390-Km)とほとんど変わらない.なお,

Gは,小惑星表面のスロープ・パラメータであるが,実質的にはアルベドと考えて

良い.Gが変わると相異なった絶対等級Hが計算されると思われるかも知れないが,

実際にG= 0.15とG= 0.30でHを求めても,その差は,0.02等ほどにしかならないの

で,これは無視できる.



2005/2006    α  (2000) δ      △      r     日々運動   Elong.  Phase   V  

  0h TT     h  m       。  ,        AU      AU    ,  PA 。     。      。      等

Nov.  6   13 28.69  +19 12.3   51.988  51.230   1.1/ 94    39.8    0.7   17.5

     26   13 30.18  +19 10.7   51.780  51.227   0.8/ 80    55.5    0.9   17.5

Dec. 16   13 31.36  +19 13.6   51.506  51.225   0.6/ 55    72.9    1.1   17.5

Jan.  5   13 32.09  +19 20.7   51.198  51.223   0.5/ 16    90.9    1.1   17.5

     25   13 32.30  +19 31.3   50.892  51.221   0.7/340   109.0    1.0   17.5

Feb. 14   13 31.98  +19 43.8   50.626  51.218   0.9/319   126.4    0.9   17.5

Mar.  6   13 31.20  +19 56.7   50.432  51.216   1.0/306   141.9    0.7   17.4

     26   13 30.06  +20 08.2   50.333  51.214   1.0/295   151.8    0.5   17.4

Apr. 15   13 28.74  +20 16.9   50.339  51.211   0.9/284   150.1    0.6   17.4

May   5   13 27.43  +20 21.5   50.449  51.209   0.8/270   138.6    0.7   17.4

     25   13 26.31  +20 21.5   50.645  51.207   0.6/248   123.2    0.9   17.5

June 14   13 25.54  +20 17.0   50.906  51.204   0.5/209   106.6    1.1   17.5

July  4   13 25.20  +20 08.6   51.199  51.202   0.6/169    89.6    1.1   17.5

     24   13 25.36  +19 57.1   51.492  51.200   0.8/145    72.7    1.1   17.5

Aug. 13   13 26.01  +19 43.8   51.752  51.197   1.0/132    56.3    0.9   17.5

Sept. 2   13 27.09  +19 30.0   51.950  51.195   1.2/122    41.2    0.7   17.5

 

2003 EL61 

Epoch 2005 Aug. 18.0 TT = JDT 2453600.5                 MPC

M 198.06340              (2000.0)            P               Q

n   0.00345382     Peri.  239.51762     +0.91288103     -0.07575596

a  43.3447390      Node   121.89510     +0.13501246     +0.98336113

e   0.1887401      Incl.   28.19474     -0.38525297     +0.16511184

P 285.37           H   0.26           G   0.15           U   3

Residuals in seconds of arc 

550322 261  0.0   0.1+    020514 644  0.0   0.1+    050502 703  0.4-  0.2+  

550322 261  0.0   0.0     020514 644  0.2+  0.1+    050510 703  1.6+  0.1+  

910125 261  0.3+  0.4-    020514 644  0.0   0.0     050601 703  0.7-  0.4-  

910415 261  0.1+  0.0     030307 J86  0.0   0.4-    050728 620  0.1-  0.1-  

940309 261  0.2+  0.1-    030309 J86  0.0   0.3-    050728 620  0.2-  0.1-  

950204 261  0.5-  0.9+    030310 J86  0.0   0.2+    050728 620  0.2-  0.1+  

960513 261  0.2-  0.0     030324 644  0.0   0.1+    050729 854  0.7+  0.8+  

980424 566  0.1-  0.3-    030324 644  0.2+  0.1-    050729 854  0.7+  0.2-  

980424 566  0.1-  0.3-    030324 644  0.2+  0.1+    050729 854  0.7+  0.2+  

980424 566  0.1-  0.0     030405 608  0.4+  0.2-    050729 106  0.4-  1.1-  

990219 566  0.2+  0.5-    030405 608  0.3+  0.3+    050729 939  0.5+  0.2+  

020410 644  0.0   0.2+    030405 608  0.3+  0.2-    050729 147  0.9-  0.7-  

020410 644  0.1-  0.3+    030413 608  0.0   0.2-    050729 939  0.3+  0.0   

020410 644  0.0   0.2+    030413 608  0.0   0.0     050729 939  0.6+  0.0   

020421 644  0.0   0.8-    030413 608  0.0   0.1-    050730 213  0.2+  0.1-  

020421 644  0.1-  0.5-    040414 703  0.5+  0.2+    050730 185  0.6-  0.4-  

020421 644  0.0   0.6-    040425 703  0.0   0.7+    050730 106  0.2-  0.3-  

020504 644  0.1-  0.1+    040531 703  0.7-  0.1+    050730 213  0.0   0.1-  

020504 644  0.1-  0.2+    050304 703  0.1-  0.5-    050731 130  0.3-  0.6-  

020504 644  0.3-  0.2+    050309 703  1.5-  1.1+    050731 185  0.5-  0.3-  

020504 644  0.4-  0.3+    050402 703  0.8+  0.4+    050802 415  0.1-  0.3+  

020504 644  0.0   0.2+    050409 703  0.2-  0.5+    050805 147  1.2+  1.4+  

020504 644  0.0   0.3+    050417 703  0.6-  0.1-    050808 204  0.2-  0.1+  

 

NAKANO

         **** Don't distribute anyone except personal use only ****

                (C) Copyright 2005 OAA/ComputingSection

write mail from CFAD0::NAKANO on 2005-08-19 23:33:19(JST).

 



戻ります。